TimeEST,TemperatureF,Dew PointF,Humidity,Sea Level PressureIn,VisibilityMPH,Wind Direction,Wind SpeedMPH,Gust SpeedMPH,PrecipitationIn,Events,Conditions,WindDirDegrees,DateUTC
12:04 AM,55.4,50.0,82,29.82,10.0,SSW,16.1,21.9,0.00,Rain,Light Rain,200,2012-11-12 05:04:00
12:19 AM,55.4,50.0,82,29.82,10.0,SSW,12.7,20.7,0.01,,Overcast,200,2012-11-12 05:19:00
12:53 AM,55.0,50.0,83,29.81,10.0,SSW,13.8,21.9,0.01,,Overcast,200,2012-11-12 05:53:00
1:20 AM,55.4,50.0,82,29.80,10.0,SSW,17.3,21.9,0.00,Rain,Light Rain,200,2012-11-12 06:20:00
1:53 AM,51.1,48.9,92,29.82,9.0,SW,13.8,21.9,0.02,Rain,Light Rain,230,2012-11-12 06:53:00
2:04 AM,51.8,48.2,88,29.82,10.0,SW,11.5,-,0.00,,Overcast,230,2012-11-12 07:04:00
2:53 AM,51.1,48.9,92,29.80,10.0,SSW,6.9,-,0.00,,Overcast,200,2012-11-12 07:53:00
3:33 AM,51.8,48.2,88,29.79,10.0,SSW,10.4,-,0.00,,Overcast,200,2012-11-12 08:33:00
3:53 AM,50.0,48.0,93,29.81,10.0,SSW,11.5,-,0.00,,Overcast,210,2012-11-12 08:53:00
4:53 AM,50.0,48.0,93,29.79,10.0,SSW,9.2,-,0.02,Rain,Light Rain,200,2012-11-12 09:53:00
5:22 AM,46.4,44.6,93,29.81,10.0,WSW,13.8,21.9,0.01,Rain,Light Rain,240,2012-11-12 10:22:00
5:53 AM,46.0,44.1,93,29.83,10.0,WSW,9.2,-,0.03,Rain,Light Rain,240,2012-11-12 10:53:00
6:04 AM,46.4,44.6,93,29.83,10.0,WSW,8.1,-,0.00,,Overcast,250,2012-11-12 11:04:00
6:11 AM,46.4,44.6,93,29.83,10.0,WSW,9.2,-,0.00,,Overcast,250,2012-11-12 11:11:00
6:18 AM,44.6,42.8,93,29.83,10.0,WSW,9.2,-,0.00,,Overcast,240,2012-11-12 11:18:00
6:31 AM,44.6,42.8,93,29.83,6.0,WSW,8.1,-,0.01,Rain,Light Rain,250,2012-11-12 11:31:00
6:39 AM,44.6,42.8,93,29.83,9.0,West,8.1,-,0.01,Rain,Light Rain,260,2012-11-12 11:39:00
6:50 AM,44.6,42.8,93,29.83,10.0,WSW,6.9,-,0.01,Rain,Light Rain,250,2012-11-12 11:50:00
6:53 AM,44.1,41.0,89,29.84,10.0,WSW,9.2,-,0.01,Rain,Light Rain,250,2012-11-12 11:53:00
7:36 AM,42.8,39.2,87,29.85,10.0,West,11.5,-,0.00,,Overcast,270,2012-11-12 12:36:00
7:53 AM,41.0,39.0,93,29.86,10.0,West,9.2,-,0.00,,Overcast,270,2012-11-12 12:53:00
8:21 AM,41.0,37.4,87,29.86,10.0,West,13.8,18.4,N/A,,Overcast,270,2012-11-12 13:21:00
8:23 AM,39.2,37.4,93,29.86,10.0,West,15.0,20.7,N/A,,Overcast,270,2012-11-12 13:23:00
8:44 AM,39.2,35.6,87,29.87,10.0,West,12.7,23.0,0.00,,Overcast,260,2012-11-12 13:44:00
8:53 AM,39.0,35.1,86,29.88,10.0,West,13.8,20.7,0.00,,Overcast,260,2012-11-12 13:53:00
9:10 AM,37.4,33.8,87,29.87,10.0,West,11.5,-,N/A,,Overcast,260,2012-11-12 14:10:00
9:32 AM,37.4,33.8,87,29.87,10.0,WSW,12.7,18.4,N/A,,Overcast,250,2012-11-12 14:32:00
9:53 AM,37.0,34.0,89,29.88,10.0,West,10.4,-,0.00,Rain,Light Rain,260,2012-11-12 14:53:00
10:17 AM,37.4,33.8,87,29.88,10.0,WSW,16.1,21.9,0.00,,Overcast,250,2012-11-12 15:17:00
10:32 AM,37.4,33.8,87,29.89,10.0,West,12.7,-,0.00,,Overcast,260,2012-11-12 15:32:00
10:53 AM,35.1,32.0,89,29.93,10.0,West,15.0,-,0.00,,Overcast,260,2012-11-12 15:53:00
11:27 AM,33.8,28.4,81,29.91,10.0,WSW,17.3,25.3,N/A,,Overcast,250,2012-11-12 16:27:00
11:29 AM,33.8,28.4,81,29.91,10.0,West,16.1,26.5,N/A,,Overcast,260,2012-11-12 16:29:00
11:53 AM,34.0,28.0,79,29.94,10.0,West,12.7,25.3,N/A,,Overcast,270,2012-11-12 16:53:00
12:53 PM,33.1,26.1,75,29.93,10.0,West,15.0,24.2,N/A,,Overcast,260,2012-11-12 17:53:00
1:53 PM,33.1,26.1,75,29.94,10.0,WSW,16.1,20.7,N/A,,Overcast,240,2012-11-12 18:53:00
2:18 PM,33.8,24.8,70,29.92,10.0,WSW,17.3,24.2,N/A,,Overcast,250,2012-11-12 19:18:00
2:36 PM,33.8,24.8,70,29.92,10.0,West,17.3,25.3,N/A,,Overcast,260,2012-11-12 19:36:00
2:53 PM,32.0,21.9,66,29.95,10.0,West,18.4,26.5,N/A,,Overcast,260,2012-11-12 19:53:00
3:53 PM,30.9,23.0,72,29.98,10.0,WSW,18.4,25.3,N/A,,Overcast,250,2012-11-12 20:53:00
4:53 PM,30.9,21.9,69,30.01,10.0,West,21.9,31.1,N/A,,Overcast,260,2012-11-12 21:53:00
5:53 PM,30.0,21.0,69,30.04,10.0,WSW,16.1,28.8,N/A,,Overcast,240,2012-11-12 22:53:00
6:13 PM,30.2,21.2,69,30.01,9.0,WSW,20.7,28.8,0.00,Snow,Light Snow,250,2012-11-12 23:13:00
6:53 PM,30.0,21.9,72,30.06,7.0,WSW,18.4,25.3,0.00,Snow,Light Snow,250,2012-11-12 23:53:00
7:53 PM,28.9,21.0,72,30.07,10.0,WSW,17.3,27.6,0.00,,Mostly Cloudy,250,2012-11-13 00:53:00
8:53 PM,28.0,21.9,78,30.10,5.0,WSW,18.4,27.6,0.00,Snow,Light Snow,250,2012-11-13 01:53:00
9:42 PM,28.4,21.2,74,30.08,10.0,West,17.3,26.5,0.00,,Overcast,260,2012-11-13 02:42:00
9:53 PM,28.0,19.9,72,30.13,10.0,West,17.3,25.3,0.00,,Overcast,260,2012-11-13 02:53:00
10:53 PM,27.0,19.0,72,30.17,6.0,West,12.7,24.2,0.00,Snow,Light Snow,260,2012-11-13 03:53:00
11:53 PM,26.1,19.9,78,30.20,1.5,West,12.7,19.6,0.00,Snow,Light Snow,260,2012-11-13 04:53:00